Погода в Верхней Ольшанке

Россия / Курская область     51°09′15″N   36°41′45″E
темп.,
°C
ветер,
м/с
пор.,
м/с
влажн.,
%
обл.,
%
осадки,
мм/ч
давл.,
гПа
погр.,
м
25 февраля, чт
чт2500:00−9ююз41095100 0.4 1033288
03:00−7ююз4895100 0.6 1031250
06:00−5юз5895100 0.2 1029262
09:00−2зюз61096100 0.3 1027418
12:00+1зюз61199100 0.0 1025364
15:00+2зюз612100100 0.1 1024337
18:00+2з613100100 0.1 1022337
21:00+2з51299100 0.1 1023297
26 февраля, пт
пт2600:00+1з51199100 0.1 1022284
03:00+1з51099100 0.1 1023264
06:00+2з51099100 0.0 1021254
09:00+2з51199100 0.0 1021303
12:00+2зюз713100100 0.0 1019373
15:00+2зюз814100100 0.0 1017445
18:00+2з61398100 0.0 1016399
21:00+2з51299100 0.1 1015287
27 февраля, сб
сб2700:00+1з5119699 0.0 1014337
03:00+1з51096100 0.0 1013365
06:00+1з61198100 0.0 1011445
09:00+1зсз61297100 0.1 1011568
12:00+1з61295100 0.1 1010535
15:00+1зсз5109885 0.1 1011535
18:00+1зсз61096100 0.1 1011538
21:000зсз5998100 0.1 1012373
28 февраля, вс
вс2800:000сз4798100 0.4 1012344
03:00−1сз369699 0.6 1013203
06:00−2ссз379790 0.1 1014262
09:00−1с479394 0.1 1016570
12:000с579296 0.1 1018651
15:000с588798 0.3 1019716
18:00−1ссз4891100 0.1 1020527
21:00−2ссз499598 0.3 1023462
1 марта, пн
пн100:00−2с489481 0.1 1024450
03:00−3с379581 0.1 1026317
06:00−4ссз369598 0.1 1027276
09:00−3с359298 0.2 1029366
12:00−2с457992 0.1 1030818
15:00−2ссз457496 0.1 1031974
18:00−3сз238582 0.0 103166
21:00−4сз359173 0.0 1032142